N179AL SCIE-SCEL

Flight info

Callsign N179AL
Flight time 1h 4m
Altitude 24000
Route LODOS4M LODOS UQ808 EROLO EROLO8A
Aircraft PC12/L-SDFGRWY/S

Departure

Time 2026-04-20 20:04
Airport Carriel Sur International Airport (SCIE)

Arrival

Time 2026-04-20 21:08
Airport Comodoro Arturo Merino Benítez International Airport (SCEL)
Time Latitude Longitude Altitude Speed Heading
2026-04-20 19:49 -36.77006 -73.05800 57 ft 0 kts 300°
2026-04-20 19:59 -36.76984 -73.05835 57 ft 0 kts 285°
2026-04-20 19:59 -36.76980 -73.05851 57 ft 0 kts 299°
2026-04-20 20:01 -36.76980 -73.05852 53 ft 1 kts 299°
2026-04-20 20:01 -36.76979 -73.05910 56 ft 14 kts 202°
2026-04-20 20:01 -36.77112 -73.05985 53 ft 27 kts 207°
2026-04-20 20:01 -36.77314 -73.06105 57 ft 34 kts 204°
2026-04-20 20:02 -36.77518 -73.06226 54 ft 36 kts 207°
2026-04-20 20:02 -36.77774 -73.06374 57 ft 45 kts 204°
2026-04-20 20:02 -36.78005 -73.06512 54 ft 17 kts 206°
2026-04-20 20:02 -36.78057 -73.06543 57 ft 13 kts 203°
2026-04-20 20:03 -36.78220 -73.06638 57 ft 34 kts 208°
2026-04-20 20:03 -36.78154 -73.06851 64 ft 33 kts
2026-04-20 20:03 -36.77828 -73.06656 58 ft 79 kts 22°
2026-04-20 20:03 -36.77217 -73.06301 162 ft 110 kts 30°
2026-04-20 20:04 -36.76476 -73.05777 399 ft 143 kts 30°
2026-04-20 20:04 -36.75472 -73.05099 517 ft 182 kts 25°
2026-04-20 20:04 -36.74267 -73.04505 1054 ft 179 kts 21°
2026-04-20 20:04 -36.73180 -73.03926 1936 ft 168 kts 25°
2026-04-20 20:05 -36.72095 -73.03294 2534 ft 174 kts 26°
2026-04-20 20:05 -36.70999 -73.02653 3194 ft 175 kts 26°
2026-04-20 20:05 -36.69918 -73.01944 3855 ft 177 kts 40°
2026-04-20 20:05 -36.69027 -73.00879 4514 ft 175 kts 46°
2026-04-20 20:06 -36.68250 -72.99689 5062 ft 187 kts 55°
2026-04-20 20:06 -36.67446 -72.98322 5316 ft 205 kts 54°
2026-04-20 20:06 -36.66546 -72.96954 5862 ft 204 kts 50°
2026-04-20 20:06 -36.65593 -72.95628 6365 ft 206 kts 49°
2026-04-20 20:07 -36.64630 -72.94294 6856 ft 208 kts 49°
2026-04-20 20:07 -36.63663 -72.92941 7354 ft 210 kts 49°
2026-04-20 20:07 -36.62691 -72.91578 7840 ft 211 kts 49°
2026-04-20 20:07 -36.61710 -72.90207 8333 ft 213 kts 49°
2026-04-20 20:08 -36.60723 -72.88826 8816 ft 214 kts 49°
2026-04-20 20:08 -36.59742 -72.87454 9301 ft 216 kts 49°
2026-04-20 20:08 -36.58739 -72.86051 9803 ft 217 kts 48°
2026-04-20 20:08 -36.57732 -72.84645 10311 ft 218 kts 48°
2026-04-20 20:09 -36.56721 -72.83235 10849 ft 219 kts 47°
2026-04-20 20:09 -36.55708 -72.81821 11380 ft 217 kts 47°
2026-04-20 20:09 -36.54724 -72.80449 11950 ft 218 kts 46°
2026-04-20 20:09 -36.53669 -72.78980 12071 ft 233 kts 46°
2026-04-20 20:10 -36.52594 -72.77477 12442 ft 233 kts 46°
2026-04-20 20:10 -36.51529 -72.75991 12792 ft 233 kts 45°
2026-04-20 20:10 -36.50446 -72.74483 13126 ft 235 kts 45°
2026-04-20 20:10 -36.49344 -72.72979 13429 ft 235 kts 42°
2026-04-20 20:11 -36.48173 -72.71558 13759 ft 235 kts 41°
2026-04-20 20:11 -36.47002 -72.70131 14062 ft 237 kts 41°
2026-04-20 20:11 -36.45829 -72.68694 14395 ft 237 kts 41°
2026-04-20 20:11 -36.44679 -72.67287 14703 ft 238 kts 41°
2026-04-20 20:12 -36.43498 -72.65846 15027 ft 239 kts 40°
2026-04-20 20:12 -36.42331 -72.64422 15426 ft 235 kts 40°
2026-04-20 20:12 -36.41194 -72.63033 16018 ft 228 kts 39°
2026-04-20 20:13 -36.38905 -72.60250 16826 ft 231 kts 39°
2026-04-20 20:13 -36.37753 -72.58853 17218 ft 233 kts 38°
2026-04-20 20:13 -36.36597 -72.57440 17606 ft 233 kts 38°
2026-04-20 20:13 -36.35438 -72.56025 17981 ft 235 kts 38°
2026-04-20 20:14 -36.34271 -72.54605 18348 ft 235 kts 38°
2026-04-20 20:14 -36.33098 -72.53180 18698 ft 236 kts 37°
2026-04-20 20:14 -36.31935 -72.51764 19048 ft 238 kts 38°
2026-04-20 20:14 -36.30753 -72.50320 19388 ft 240 kts 37°
2026-04-20 20:15 -36.29556 -72.48869 19728 ft 242 kts 37°
2026-04-20 20:15 -36.28352 -72.47409 20058 ft 243 kts 37°
2026-04-20 20:15 -36.27141 -72.45939 20395 ft 244 kts 37°
2026-04-20 20:15 -36.25923 -72.44460 20666 ft 247 kts 36°
2026-04-20 20:16 -36.24697 -72.42975 20974 ft 247 kts 36°
2026-04-20 20:16 -36.23469 -72.41487 21256 ft 248 kts 36°
2026-04-20 20:16 -36.22247 -72.40008 21506 ft 250 kts 36°
2026-04-20 20:16 -36.21007 -72.38503 21749 ft 249 kts 35°
2026-04-20 20:17 -36.19767 -72.36999 21979 ft 250 kts 35°
2026-04-20 20:17 -36.18515 -72.35487 22186 ft 252 kts 34°
2026-04-20 20:17 -36.17259 -72.33972 22407 ft 253 kts 34°
2026-04-20 20:17 -36.15998 -72.32449 22613 ft 254 kts 34°
2026-04-20 20:18 -36.14737 -72.30926 22821 ft 254 kts 33°
2026-04-20 20:18 -36.13467 -72.29400 23004 ft 255 kts 33°
2026-04-20 20:18 -36.12197 -72.27870 23199 ft 255 kts 32°
2026-04-20 20:18 -36.10941 -72.26367 23497 ft 252 kts 32°
2026-04-20 20:19 -36.09694 -72.24861 23780 ft 251 kts 32°
2026-04-20 20:19 -36.08438 -72.23349 23989 ft 253 kts 31°
2026-04-20 20:19 -36.07174 -72.21830 24199 ft 255 kts 31°
2026-04-20 20:19 -36.05883 -72.20282 24210 ft 261 kts 31°
2026-04-20 20:20 -36.04542 -72.18797 24201 ft 255 kts 24°
2026-04-20 20:20 -36.03054 -72.17645 24202 ft 251 kts 15°
2026-04-20 20:20 -36.01475 -72.16745 24211 ft 251 kts 13°
2026-04-20 20:20 -35.99898 -72.15851 24209 ft 254 kts 13°
2026-04-20 20:21 -35.98302 -72.14935 24214 ft 253 kts 13°
2026-04-20 20:21 -35.96708 -72.14030 24211 ft 251 kts 13°
2026-04-20 20:21 -35.95122 -72.13134 24211 ft 250 kts 13°
2026-04-20 20:21 -35.93542 -72.12241 24210 ft 249 kts 13°
2026-04-20 20:22 -35.92500 -72.11653 24212 ft 249 kts 13°
2026-04-20 20:22 -35.90401 -72.10465 24213 ft 248 kts 13°
2026-04-20 20:22 -35.88835 -72.09577 24212 ft 248 kts 13°
2026-04-20 20:22 -35.87291 -72.08703 24211 ft 248 kts 13°
2026-04-20 20:23 -35.85722 -72.07818 24210 ft 248 kts 13°
2026-04-20 20:23 -35.84144 -72.06928 24211 ft 250 kts 13°
2026-04-20 20:23 -35.82560 -72.06034 24209 ft 251 kts 13°
2026-04-20 20:23 -35.80974 -72.05135 24212 ft 251 kts 13°
2026-04-20 20:24 -35.79388 -72.04239 24208 ft 251 kts 13°
2026-04-20 20:24 -35.77802 -72.03346 24209 ft 251 kts 13°
2026-04-20 20:24 -35.76230 -72.02459 24206 ft 250 kts 13°
2026-04-20 20:24 -35.74632 -72.01565 24209 ft 253 kts 13°
2026-04-20 20:25 -35.73029 -72.00661 24209 ft 254 kts 13°
2026-04-20 20:25 -35.71443 -71.99765 24207 ft 254 kts 13°
2026-04-20 20:25 -35.69841 -71.98862 24208 ft 252 kts 13°
2026-04-20 20:25 -35.68247 -71.97967 24205 ft 252 kts 13°
2026-04-20 20:26 -35.66654 -71.97074 24207 ft 251 kts 13°
2026-04-20 20:26 -35.65067 -71.96181 24200 ft 251 kts 13°
2026-04-20 20:26 -35.63475 -71.95286 24202 ft 252 kts 13°
2026-04-20 20:26 -35.61884 -71.94394 24204 ft 251 kts 13°
2026-04-20 20:27 -35.60292 -71.93501 24201 ft 252 kts 13°
2026-04-20 20:27 -35.58693 -71.92605 24200 ft 253 kts 13°
2026-04-20 20:27 -35.57117 -71.91721 24198 ft 252 kts 13°
2026-04-20 20:27 -35.55521 -71.90826 24197 ft 253 kts 13°
2026-04-20 20:28 -35.54437 -71.90218 24198 ft 253 kts 13°
2026-04-20 20:28 -35.52306 -71.89026 24203 ft 255 kts 13°
2026-04-20 20:28 -35.50686 -71.88120 24213 ft 256 kts 13°
2026-04-20 20:28 -35.49066 -71.87213 24213 ft 257 kts 13°
2026-04-20 20:29 -35.47441 -71.86303 24212 ft 257 kts 13°
2026-04-20 20:29 -35.45812 -71.85393 24212 ft 258 kts 13°
2026-04-20 20:29 -35.44201 -71.84494 24214 ft 258 kts 13°
2026-04-20 20:29 -35.42566 -71.83581 24217 ft 259 kts 13°
2026-04-20 20:30 -35.40926 -71.82666 24212 ft 259 kts 13°
2026-04-20 20:30 -35.39277 -71.81771 24212 ft 258 kts 12°
2026-04-20 20:30 -35.37622 -71.80907 24216 ft 259 kts 12°
2026-04-20 20:30 -35.35967 -71.80035 24215 ft 260 kts 12°
2026-04-20 20:31 -35.34308 -71.79153 24218 ft 261 kts 12°
2026-04-20 20:31 -35.32642 -71.78266 24216 ft 262 kts 12°
2026-04-20 20:31 -35.30994 -71.77389 24216 ft 261 kts 12°
2026-04-20 20:31 -35.29365 -71.76514 24216 ft 252 kts 11°
2026-04-20 20:32 -35.27746 -71.75662 24215 ft 256 kts 11°
2026-04-20 20:32 -35.26092 -71.74794 24220 ft 261 kts 11°
2026-04-20 20:32 -35.24413 -71.73902 24222 ft 264 kts 12°
2026-04-20 20:32 -35.22724 -71.73000 24222 ft 265 kts 12°
2026-04-20 20:33 -35.21032 -71.72101 24230 ft 265 kts 12°
2026-04-20 20:33 -35.19346 -71.71209 24218 ft 264 kts 12°
2026-04-20 20:33 -35.17681 -71.70330 24223 ft 264 kts 12°
2026-04-20 20:33 -35.15998 -71.69439 24234 ft 264 kts 12°
2026-04-20 20:34 -35.14307 -71.68543 24219 ft 265 kts 12°
2026-04-20 20:34 -35.12615 -71.67649 24221 ft 265 kts 11°
2026-04-20 20:34 -35.10919 -71.66752 24216 ft 266 kts 11°
2026-04-20 20:34 -35.09222 -71.65856 24214 ft 266 kts 11°
2026-04-20 20:35 -35.07530 -71.64961 24220 ft 265 kts 11°
2026-04-20 20:35 -35.05837 -71.64070 24221 ft 266 kts 11°
2026-04-20 20:35 -35.04156 -71.63184 24223 ft 267 kts 12°
2026-04-20 20:35 -35.02459 -71.62281 24221 ft 266 kts 11°
2026-04-20 20:36 -35.00750 -71.61388 24222 ft 267 kts 11°
2026-04-20 20:36 -34.99041 -71.60492 24222 ft 268 kts 11°
2026-04-20 20:36 -34.97333 -71.59584 24220 ft 268 kts 11°
2026-04-20 20:36 -34.95631 -71.58684 24230 ft 267 kts 11°
2026-04-20 20:37 -34.93915 -71.57791 24233 ft 270 kts 11°
2026-04-20 20:37 -34.92187 -71.56888 24230 ft 271 kts 11°
2026-04-20 20:37 -34.90471 -71.55981 24230 ft 274 kts 12°
2026-04-20 20:37 -34.88717 -71.55054 24226 ft 275 kts 12°
2026-04-20 20:38 -34.86968 -71.54134 24233 ft 273 kts 11°
2026-04-20 20:38 -34.85220 -71.53218 24224 ft 273 kts 11°
2026-04-20 20:38 -34.83479 -71.52306 24217 ft 272 kts 11°
2026-04-20 20:38 -34.81744 -71.51396 24221 ft 271 kts 11°
2026-04-20 20:39 -34.80005 -71.50487 24217 ft 273 kts 11°
2026-04-20 20:39 -34.78260 -71.49571 24211 ft 273 kts 11°
2026-04-20 20:39 -34.76516 -71.48654 24211 ft 273 kts 11°
2026-04-20 20:39 -34.74795 -71.47756 24217 ft 272 kts 11°
2026-04-20 20:40 -34.73052 -71.46846 24221 ft 274 kts 11°
2026-04-20 20:40 -34.71301 -71.45929 24233 ft 274 kts 11°
2026-04-20 20:40 -34.69550 -71.45011 24218 ft 274 kts 11°
2026-04-20 20:40 -34.67841 -71.44121 24233 ft 276 kts 11°
2026-04-20 20:41 -34.66074 -71.43199 24219 ft 277 kts 15°
2026-04-20 20:41 -34.64278 -71.42254 24125 ft 280 kts 13°
2026-04-20 20:41 -34.62493 -71.41321 24094 ft 282 kts 22°
2026-04-20 20:41 -34.60684 -71.40395 24061 ft 283 kts 21°
2026-04-20 20:42 -34.58904 -71.39466 24132 ft 282 kts 17°
2026-04-20 20:42 -34.57114 -71.38521 24216 ft 279 kts 11°
2026-04-20 20:42 -34.55328 -71.37590 24219 ft 279 kts 11°
2026-04-20 20:42 -34.53544 -71.36665 24225 ft 279 kts 11°
2026-04-20 20:43 -34.51760 -71.35738 24223 ft 279 kts 11°
2026-04-20 20:43 -34.49994 -71.34818 24465 ft 274 kts 11°
2026-04-20 20:43 -34.48260 -71.33926 24043 ft 282 kts 10°
2026-04-20 20:43 -34.46482 -71.32988 24179 ft 276 kts 11°
2026-04-20 20:44 -34.44752 -71.32089 24219 ft 275 kts 11°
2026-04-20 20:44 -34.42984 -71.31178 24227 ft 277 kts 11°
2026-04-20 20:44 -34.41207 -71.30256 24227 ft 279 kts 11°
2026-04-20 20:44 -34.39424 -71.29331 24223 ft 279 kts 11°
2026-04-20 20:45 -34.37638 -71.28406 24221 ft 279 kts 12°
2026-04-20 20:45 -34.35858 -71.27479 24231 ft 279 kts 11°
2026-04-20 20:45 -34.34073 -71.26559 24232 ft 280 kts 11°
2026-04-20 20:45 -34.32279 -71.25632 24231 ft 281 kts 11°
2026-04-20 20:46 -34.30482 -71.24700 24229 ft 282 kts 11°
2026-04-20 20:46 -34.28679 -71.23767 24232 ft 281 kts 11°
2026-04-20 20:46 -34.26910 -71.22851 24223 ft 280 kts 11°
2026-04-20 20:46 -34.25124 -71.21932 24231 ft 278 kts 11°
2026-04-20 20:47 -34.23345 -71.21012 24228 ft 278 kts 11°
2026-04-20 20:47 -34.21568 -71.20090 24227 ft 277 kts 11°
2026-04-20 20:47 -34.19806 -71.19182 24222 ft 275 kts 10°
2026-04-20 20:47 -34.18035 -71.18275 24234 ft 277 kts 11°
2026-04-20 20:48 -34.16260 -71.17357 24234 ft 277 kts 11°
2026-04-20 20:48 -34.14489 -71.16442 24232 ft 278 kts 11°
2026-04-20 20:48 -34.12734 -71.15538 24233 ft 278 kts 11°
2026-04-20 20:48 -34.10954 -71.14625 24230 ft 278 kts 11°
2026-04-20 20:49 -34.09173 -71.13710 24225 ft 278 kts 11°
2026-04-20 20:49 -34.07392 -71.12794 24223 ft 279 kts 11°
2026-04-20 20:49 -34.05605 -71.11874 24234 ft 280 kts 11°
2026-04-20 20:49 -34.03807 -71.10948 24240 ft 281 kts 11°
2026-04-20 20:50 -34.02013 -71.10026 24233 ft 280 kts 11°
2026-04-20 20:50 -34.00213 -71.09103 24067 ft 285 kts 11°
2026-04-20 20:50 -33.98380 -71.08166 23703 ft 287 kts 11°
2026-04-20 20:50 -33.96572 -71.07243 23303 ft 283 kts 10°
2026-04-20 20:51 -33.94747 -71.06357 22920 ft 282 kts 10°
2026-04-20 20:51 -33.92934 -71.05480 22514 ft 281 kts 10°
2026-04-20 20:51 -33.91207 -71.04643 22144 ft 279 kts 11°
2026-04-20 20:51 -33.89400 -71.03772 21745 ft 280 kts 11°
2026-04-20 20:52 -33.87587 -71.02893 21353 ft 282 kts 11°
2026-04-20 20:52 -33.85775 -71.02010 20944 ft 278 kts 11°
2026-04-20 20:52 -33.83978 -71.01140 20562 ft 280 kts 11°
2026-04-20 20:52 -33.82166 -71.00263 20191 ft 282 kts 11°
2026-04-20 20:53 -33.80366 -70.99402 19788 ft 282 kts 12°
2026-04-20 20:53 -33.78547 -70.98514 19383 ft 279 kts 12°
2026-04-20 20:53 -33.76764 -70.97645 18993 ft 277 kts 12°
2026-04-20 20:53 -33.74957 -70.96784 18609 ft 281 kts 12°
2026-04-20 20:54 -33.73134 -70.95913 18218 ft 282 kts 13°
2026-04-20 20:54 -33.71309 -70.95026 17824 ft 283 kts 13°
2026-04-20 20:54 -33.69487 -70.94140 17434 ft 281 kts 13°
2026-04-20 20:54 -33.67678 -70.93270 17040 ft 279 kts 13°
2026-04-20 20:55 -33.65895 -70.92414 16663 ft 280 kts 14°
2026-04-20 20:55 -33.64082 -70.91544 16280 ft 282 kts 14°
2026-04-20 20:55 -33.62265 -70.90667 15885 ft 281 kts 14°
2026-04-20 20:55 -33.60456 -70.89794 15501 ft 280 kts 15°
2026-04-20 20:56 -33.58656 -70.88929 15114 ft 278 kts 15°
2026-04-20 20:56 -33.56874 -70.88048 14738 ft 278 kts 18°
2026-04-20 20:56 -33.55177 -70.86883 14352 ft 281 kts 25°
2026-04-20 20:56 -33.53521 -70.85652 13971 ft 279 kts 25°
2026-04-20 20:57 -33.51862 -70.84440 13587 ft 277 kts 25°
2026-04-20 20:57 -33.50226 -70.83241 13211 ft 275 kts 25°
2026-04-20 20:57 -33.48626 -70.82064 12843 ft 274 kts 26°
2026-04-20 20:57 -33.47000 -70.80868 12278 ft 273 kts 26°
2026-04-20 20:58 -33.45405 -70.79694 11867 ft 266 kts 26°
2026-04-20 20:58 -33.43824 -70.78534 11501 ft 266 kts 27°
2026-04-20 20:58 -33.42236 -70.77370 11141 ft 270 kts 27°
2026-04-20 20:58 -33.40652 -70.76205 10780 ft 267 kts 28°
2026-04-20 20:59 -33.39083 -70.75051 10424 ft 261 kts 28°
2026-04-20 20:59 -33.37599 -70.73965 10085 ft 257 kts 29°
2026-04-20 20:59 -33.36091 -70.72873 9751 ft 256 kts 29°
2026-04-20 20:59 -33.34577 -70.71761 9409 ft 254 kts 31°
2026-04-20 21:00 -33.33068 -70.70644 9065 ft 255 kts 31°
2026-04-20 21:00 -33.31518 -70.69628 8708 ft 253 kts 20°
2026-04-20 21:00 -33.29772 -70.69232 8360 ft 260 kts
2026-04-20 21:00 -33.27975 -70.69395 8027 ft 259 kts 354°
2026-04-20 21:01 -33.26185 -70.69630 7689 ft 259 kts 354°
2026-04-20 21:01 -33.24409 -70.69842 7345 ft 262 kts 354°
2026-04-20 21:01 -33.22613 -70.70064 6932 ft 259 kts 355°
2026-04-20 21:01 -33.20929 -70.70691 6465 ft 248 kts 328°
2026-04-20 21:02 -33.19758 -70.72067 6138 ft 228 kts 303°
2026-04-20 21:02 -33.19209 -70.73744 5840 ft 209 kts 279°
2026-04-20 21:02 -33.19171 -70.74843 5663 ft 196 kts 265°
2026-04-20 21:02 -33.19301 -70.76368 5416 ft 176 kts 264°
2026-04-20 21:03 -33.19686 -70.78162 5099 ft 163 kts 237°
2026-04-20 21:03 -33.20178 -70.78837 4956 ft 164 kts 220°
2026-04-20 21:03 -33.21528 -70.79516 4677 ft 162 kts 184°
2026-04-20 21:03 -33.22646 -70.79469 4469 ft 160 kts 178°
2026-04-20 21:04 -33.23755 -70.79416 4259 ft 160 kts 178°
2026-04-20 21:04 -33.24508 -70.79378 4130 ft 162 kts 178°
2026-04-20 21:04 -33.25602 -70.79324 3917 ft 157 kts 178°
2026-04-20 21:04 -33.26650 -70.79272 3780 ft 156 kts 178°
2026-04-20 21:05 -33.27732 -70.79207 3508 ft 156 kts 178°
2026-04-20 21:05 -33.28798 -70.79154 3363 ft 146 kts 178°
2026-04-20 21:05 -33.30048 -70.79082 3103 ft 125 kts 178°
2026-04-20 21:05 -33.30606 -70.79055 2987 ft 114 kts 178°
2026-04-20 21:06 -33.31427 -70.79004 2818 ft 118 kts 177°
2026-04-20 21:06 -33.32436 -70.78952 2617 ft 106 kts 177°
2026-04-20 21:06 -33.32938 -70.78931 2482 ft 111 kts 179°
2026-04-20 21:06 -33.33756 -70.78905 2369 ft 118 kts 176°
2026-04-20 21:07 -33.34580 -70.78848 2238 ft 117 kts 175°
2026-04-20 21:07 -33.35379 -70.78806 2117 ft 110 kts 176°
2026-04-20 21:07 -33.36159 -70.78768 1892 ft 114 kts 174°
2026-04-20 21:07 -33.36959 -70.78708 1718 ft 115 kts 174°
2026-04-20 21:08 -33.37709 -70.78672 1569 ft 95 kts 173°
2026-04-20 21:08 -33.38261 -70.78634 1560 ft 67 kts 176°
2026-04-20 21:08 -33.38662 -70.78607 1560 ft 57 kts 175°
2026-04-20 21:08 -33.38977 -70.78611 1561 ft 28 kts 189°
2026-04-20 21:09 -33.39191 -70.78693 1560 ft 30 kts 207°
2026-04-20 21:09 -33.39304 -70.78796 1561 ft 21 kts 259°
2026-04-20 21:09 -33.39310 -70.78990 1561 ft 21 kts 265°
2026-04-20 21:09 -33.39314 -70.79189 1561 ft 8 kts 281°
2026-04-20 21:10 -33.39276 -70.79238 1561 ft 6 kts
2026-04-20 21:10 -33.39232 -70.79210 1561 ft 6 kts
2026-04-20 21:10 -33.39227 -70.79210 1561 ft 0 kts 356°